Tampa Macdill AFB, FL

4:48 AM EDT on October 21, 2019 (GMT -0400)
MacDill Air Force Base

Weather History for KMCF - August, 2019

Change the Weather History Date:

Saturday, August 24, 2019

  Actual Average Record
Temperature  
Mean Temperature 83 °F -  
Max Temperature 92 °F 88 °F 96 °F (2014)
Min Temperature 76 °F 73 °F 72 °F (2012)
Cooling Degree Days 18    
Growing Degree Days 33 (Base 50)    
Moisture  
Dew Point 75 °F    
Average Humidity 74    
Maximum Humidity 94    
Minimum Humidity 58    
Precipitation  
Precipitation 0.00 in - - ()
Sea Level Pressure  
Sea Level Pressure 29.95 in    
Wind  
Wind Speed 5 mph (NE)    
Max Wind Speed 9 mph    
Max Gust Speed -    
Visibility 10 miles    
Events      
Averages and records for this station are not official NWS values.
T = Trace of Precipitation, MM = Missing Value Source: NWS Daily Summary

Daily Weather History Graph

Daily Weather History Graph

Search for Another Location

Airport or City:

Astronomy

Aug. 24, 2019 Rise Set
Actual Time 7:04 AM EDT 7:59 PM EDT
Civil Twilight 6:40 AM EDT 8:23 PM EDT
Nautical Twilight 6:12 AM EDT 8:52 PM EDT
Astronomical Twilight 5:42 AM EDT 9:21 PM EDT
Moon 1:07 AM EDT (8/24) 3:00 PM EDT (8/24)
Length of Visible Light 13h 43m
Length of Day
12h 54m
Last Quarter, 39% of the Moon is Illuminated
Aug 24
Last Quarter
Aug 30
New
Sep 5
First Quarter
Sep 14
Full
Sep 21
Last Quarter

Hourly Weather History & Observations

Time (EDT) Temp. Heat Index Dew Point Humidity Pressure Visibility Wind Dir Wind Speed Gust Speed Precip Events Conditions
12:56 AM 80.2 °F 85.5 °F 75.2 °F 85% 29.97 in 10.0 mi East 4.6 mph - N/A   Clear
1:56 AM 79.2 °F - 75.2 °F 88% 29.96 in 10.0 mi East 4.6 mph - N/A   Clear
2:56 AM 78.6 °F - 74.3 °F 87% 29.96 in 10.0 mi SE 4.6 mph - N/A   Clear
3:56 AM 77.2 °F - 73.9 °F 90% 29.94 in 10.0 mi NE 4.6 mph - N/A   Clear
4:56 AM 77.0 °F - 74.1 °F 91% 29.94 in 10.0 mi Calm Calm - N/A   Clear
5:56 AM 76.1 °F - 74.1 °F 94% 29.93 in 10.0 mi ENE 5.8 mph - N/A   Clear
6:56 AM 76.5 °F - 74.3 °F 93% 29.96 in 10.0 mi NE 3.5 mph - N/A   Clear
7:56 AM 77.9 °F - 75.6 °F 92% 29.97 in 10.0 mi NNE 3.5 mph - N/A   Clear
8:56 AM 81.1 °F 87.6 °F 75.7 °F 84% 29.98 in 10.0 mi North 3.5 mph - N/A   Clear
9:56 AM 84.2 °F 92.6 °F 75.4 °F 75% 29.98 in 10.0 mi North 3.5 mph - N/A   Clear
10:21 AM 86.0 °F 95.1 °F 75.2 °F 70% 29.98 in 10.0 mi North 6.9 mph - N/A   Mostly Cloudy
10:56 AM 83.8 °F 91.4 °F 74.7 °F 74% 29.99 in 10.0 mi North 6.9 mph - N/A   Overcast
11:11 AM 84.2 °F 92.3 °F 75.2 °F 74% 29.99 in 10.0 mi North 6.9 mph - N/A   Overcast
11:16 AM 84.2 °F 92.3 °F 75.2 °F 74% 29.99 in 10.0 mi NNW 5.8 mph - N/A   Overcast
11:31 AM 84.2 °F 92.3 °F 75.2 °F 74% 29.99 in 10.0 mi NNW 6.9 mph - N/A   Overcast
11:36 AM 84.2 °F 92.3 °F 75.2 °F 74% 29.99 in 10.0 mi NNW 5.8 mph - N/A   Overcast
11:51 AM 84.2 °F 92.3 °F 75.2 °F 74% 29.98 in 10.0 mi NW 5.8 mph - N/A   Mostly Cloudy
11:56 AM 85.3 °F 94.6 °F 75.6 °F 73% 29.98 in 10.0 mi NNW 8.1 mph - N/A   Mostly Cloudy
12:11 PM 86.0 °F 95.1 °F 75.2 °F 70% 29.97 in 10.0 mi North 3.5 mph - N/A   Mostly Cloudy
12:56 PM 86.9 °F 96.4 °F 75.0 °F 68% 29.96 in 10.0 mi North 5.8 mph - N/A   Overcast
1:48 PM 89.6 °F 99.8 °F 75.2 °F 62% 29.95 in 10.0 mi East 4.6 mph - N/A   Light Drizzle
1:56 PM 90.0 °F 100.2 °F 74.7 °F 61% 29.95 in 10.0 mi East 5.8 mph - 0.00 in   Light Drizzle
1:57 PM 89.6 °F 99.8 °F 75.2 °F 62% 29.95 in 10.0 mi ENE 6.9 mph - N/A   Scattered Clouds
2:56 PM 89.6 °F 101.0 °F 75.7 °F 64% 29.94 in 10.0 mi WSW 4.6 mph - 0.00 in   Mostly Cloudy
3:56 PM 90.0 °F 100.2 °F 74.7 °F 61% 29.92 in 10.0 mi SE 5.8 mph - N/A   Partly Cloudy
4:56 PM 90.3 °F 99.3 °F 73.9 °F 58% 29.90 in 10.0 mi Calm Calm - N/A   Clear
5:56 PM 90.9 °F 105.7 °F 77.9 °F 66% 29.89 in 10.0 mi North 4.6 mph - N/A   Scattered Clouds
6:56 PM 90.5 °F 104.7 °F 77.5 °F 66% 29.89 in 10.0 mi NW 4.6 mph - N/A   Clear
7:56 PM 87.4 °F 99.8 °F 77.5 °F 72% 29.90 in 10.0 mi NE 4.6 mph - N/A   Mostly Cloudy
8:10 PM 87.8 °F 97.6 °F 75.2 °F 66% 29.91 in 10.0 mi ESE 3.5 mph - N/A   Light Drizzle
8:26 PM 87.8 °F 97.6 °F 75.2 °F 66% 29.91 in 10.0 mi East 5.8 mph - N/A   Overcast
8:56 PM 87.3 °F 96.3 °F 74.5 °F 66% 29.92 in 10.0 mi East 9.2 mph - 0.00 in   Clear
9:14 PM 87.8 °F 97.6 °F 75.2 °F 66% 29.93 in 10.0 mi ESE 5.8 mph - N/A   Partly Cloudy
9:56 PM 85.3 °F 94.2 °F 75.2 °F 72% 29.95 in 10.0 mi SE 6.9 mph - N/A   Partly Cloudy
10:56 PM 84.4 °F 92.4 °F 75.0 °F 73% 29.97 in 10.0 mi SE 6.9 mph - N/A   Clear
11:56 PM 82.9 °F 89.9 °F 74.8 °F 76% 29.97 in 10.0 mi ESE 6.9 mph - N/A   Clear